Theta_e
326 323 323 322 321 321 320 321 322 322 323 323 323 323 323 324 324 324 324 324 324 324 324 324 323 323 323 324 324 324 323 324 324 323 322 321 320 318 316 314 313 313
327 324 323 322 321 321 321 321 322 323 324 323 322 322 323 322 321 321 321 322 323 324 322 322 322 322 322 322 321 320 320 320 320 320 319 318 317 316 315 314 314 314
326 323 323 322 321 322 322 322 323 323 323 322 321 321 321 321 320 318 319 320 321 321 320 319 319 319 319 319 318 318 317 317 317 316 316 316 316 315 315 315 315 314
325 323 323 323 323 322 322 322 323 323 322 321 320 320 320 320 319 318 318 318 318 317 317 316 316 317 317 317 316 316 316 316 315 314 315 316 316 316 317 317 317 317
324 322 323 323 323 322 322 322 322 321 321 320 318 318 318 318 317 316 315 316 316 316 315 315 315 315 316 315 314 314 314 314 314 314 315 316 317 318 318 317 317 317
324 322 322 321 321 320 322 322 321 320 320 318 317 316 316 315 314 314 314 314 314 314 314 314 314 314 313 313 313 312 313 314 314 315 315 316 317 318 317 317 317 316
324 323 322 320 318 317 319 320 321 321 319 317 316 315 315 315 314 313 313 313 313 313 314 314 314 313 312 312 312 313 313 313 314 314 315 315 316 317 317 317 317 317
324 323 322 319 317 317 317 318 319 320 319 318 317 315 315 315 314 313 313 312 312 312 313 314 314 314 313 313 313 314 313 313 314 315 315 315 315 316 316 316 315 316
324 323 322 320 320 320 318 316 316 315 316 318 317 315 315 315 315 314 313 313 312 313 313 314 314 314 314 314 314 315 314 314 314 314 314 315 315 315 316 315 315 314
325 323 322 323 324 323 320 317 312 310 313 316 317 316 315 315 315 315 315 315 314 313 313 314 316 316 315 314 314 315 316 315 314 314 314 314 314 314 314 314 314 314
326 324 322 323 324 323 322 320 316 314 316 318 318 317 316 315 315 315 316 316 316 315 314 315 317 317 316 315 315 315 316 316 315 315 314 314 313 313 314 314 315 315
327 326 323 323 323 324 323 322 321 320 320 319 318 317 317 316 315 315 316 316 317 317 316 316 316 317 317 317 318 317 317 317 317 316 316 316 316 315 315 315 316 316
328 327 326 325 325 324 323 322 322 322 321 320 318 317 316 316 316 315 315 316 316 316 316 316 316 316 317 318 318 318 318 318 318 318 318 318 318 318 317 317 318 318
328 328 327 326 325 324 324 324 323 322 321 320 320 318 317 317 317 316 315 315 315 314 315 316 315 315 316 316 317 317 318 319 319 319 319 319 320 320 319 319 320 319
326 327 326 325 324 324 324 324 323 322 321 320 320 319 319 319 318 317 317 316 315 314 314 314 315 315 316 316 316 318 319 321 321 320 320 320 320 320 320 321 321 320
325 325 325 324 324 325 324 324 323 323 322 321 320 320 320 320 320 319 318 317 317 316 315 314 315 316 316 316 317 318 320 322 322 322 321 321 320 320 320 321 320 319
324 324 324 324 324 323 323 323 323 323 324 323 322 322 321 321 320 320 320 319 319 317 316 316 316 316 317 318 318 319 322 323 323 322 323 322 322 321 321 321 320 319
322 322 323 323 323 323 323 322 322 323 324 324 324 324 321 320 320 321 320 320 320 319 318 318 317 317 317 318 319 320 323 323 323 323 323 323 322 321 320 320 319 318
319 321 321 321 321 322 322 323 323 323 324 324 324 324 323 322 321 322 322 321 320 320 320 320 319 319 319 320 319 320 322 323 323 322 322 321 320 319 318 317 316 317
316 317 318 319 320 320 321 322 323 323 324 324 323 324 324 323 322 322 323 322 321 322 322 321 322 322 322 321 320 320 321 322 321 321 320 319 317 317 316 315 315 315
312 313 314 315 317 318 319 320 321 321 323 323 323 323 323 323 323 323 322 322 322 322 322 321 321 320 321 322 321 320 321 321 320 319 319 318 318 317 316 315 315 316
310 311 312 312 314 314 316 317 318 319 320 321 322 323 323 323 323 323 322 322 322 322 321 321 321 320 320 320 321 320 320 319 319 318 318 318 318 318 317 317 316 315
308 309 310 310 311 312 313 314 315 316 317 319 320 322 322 322 323 323 322 322 322 322 321 321 320 320 320 319 319 320 319 317 315 316 316 316 316 317 318 317 316 315
306 307 308 309 310 311 311 311 312 313 314 315 316 318 319 321 322 323 322 322 322 322 321 321 320 320 320 319 317 317 318 316 314 314 315 315 314 315 316 317 316 315
304 305 306 307 308 309 310 310 310 311 311 312 314 315 316 318 321 321 322 321 321 321 321 320 320 319 319 319 318 317 318 317 315 315 315 314 314 315 316 316 315 315
303 303 304 305 306 307 308 308 309 309 309 310 311 313 314 316 318 319 320 321 320 321 320 320 319 319 319 319 319 319 319 316 314 314 314 314 315 315 314 314 314 313
Wind_Speed
14 13 12 11 10 8 7 7 6 6 6 6 8 8 7 7 7 7 8 8 8 9 9 9 10 10 10 13 15 15 13 14 14 13 13 13 12 12 11 11 12 12
14 14 13 11 11 10 8 7 7 6 6 7 9 9 8 7 7 7 8 8 8 9 9 9 10 10 11 14 15 14 13 14 13 12 13 13 13 13 12 11 11 11
14 14 13 12 12 11 9 9 7 6 8 9 9 9 8 7 8 8 8 8 9 9 8 9 11 11 11 13 14 13 12 13 14 14 14 14 13 13 12 11 11 12
16 15 13 13 13 13 11 10 8 8 9 9 9 9 8 8 8 9 9 9 9 9 9 9 11 11 11 12 13 13 13 14 14 14 14 14 13 12 12 12 13 13
17 16 15 15 14 14 12 10 9 10 10 9 9 9 9 9 9 9 9 9 9 9 9 10 11 11 11 11 12 13 14 14 13 14 15 15 14 13 13 14 14 14
16 16 15 15 15 15 14 12 10 10 9 9 10 9 9 9 9 8 8 9 9 9 10 10 10 10 10 11 12 12 13 13 13 14 14 14 14 13 14 13 13 13
15 15 15 15 15 15 13 12 12 11 10 9 9 9 9 9 8 8 8 8 9 9 10 10 10 10 11 11 12 12 12 13 13 13 13 13 13 12 12 12 12 11
14 15 15 15 15 14 13 12 12 12 12 10 8 9 9 8 8 9 8 8 9 9 9 10 10 10 10 11 12 13 12 11 12 13 13 13 12 11 11 11 11 10
13 14 14 15 15 13 12 13 13 14 14 12 9 10 10 9 9 9 8 9 9 9 9 10 10 9 9 11 11 11 11 10 11 13 13 11 11 10 10 9 9 8
13 13 14 15 14 13 13 12 12 14 13 11 10 10 9 9 9 9 8 9 9 9 10 9 9 9 9 10 11 10 9 9 11 12 11 10 10 10 9 8 8 7
13 12 13 14 13 13 13 12 12 12 11 10 10 10 10 10 10 9 8 9 9 9 9 9 9 9 9 10 10 10 9 10 10 10 10 9 8 9 9 8 7 6
12 11 12 13 12 11 11 11 11 11 10 11 11 10 11 10 10 11 10 10 9 9 9 9 9 9 9 9 10 9 10 10 10 9 9 8 7 7 8 8 6 6
10 9 9 9 9 8 7 9 11 12 11 12 12 12 12 11 11 11 11 11 11 10 10 10 11 11 10 10 10 9 10 10 10 10 9 8 7 6 7 7 6 6
8 7 6 8 9 8 6 6 9 10 11 12 12 12 12 12 12 12 11 12 12 12 13 12 13 14 13 13 12 12 11 11 11 11 10 9 8 7 7 6 6 7
8 7 5 6 7 6 5 6 8 9 11 12 12 11 11 11 11 11 12 12 12 13 15 15 15 16 16 15 15 15 14 13 13 12 11 11 11 9 8 6 5 7
6 7 6 6 6 5 4 6 7 6 7 9 10 10 10 11 11 11 12 12 13 14 15 16 17 17 17 18 17 17 16 15 15 14 12 13 14 11 9 8 7 8
4 4 4 5 6 5 4 5 6 6 6 8 10 10 9 10 11 12 13 13 14 14 15 16 18 19 19 19 19 18 18 16 16 16 14 15 17 15 11 10 8 7
6 6 8 8 7 7 7 7 8 9 9 9 10 10 10 10 10 12 15 15 15 16 17 17 19 21 21 20 20 20 20 19 19 20 19 18 18 18 15 13 10 8
4 5 8 10 9 9 10 10 10 11 11 10 10 11 11 11 11 12 14 16 17 18 20 20 18 20 23 23 22 22 23 24 23 23 22 20 20 19 16 15 13 12
10 9 6 4 4 4 6 7 7 8 10 10 11 12 13 14 15 13 12 14 16 18 20 20 16 15 19 23 23 24 26 26 24 21 21 20 19 18 16 15 15 15
13 12 10 8 5 3 2 4 5 7 8 7 8 10 13 14 16 17 16 18 20 20 22 24 20 16 19 23 24 25 26 26 23 19 18 18 17 16 16 16 16 17
14 13 12 11 10 8 6 6 5 5 6 6 7 10 12 13 15 17 19 22 24 24 25 25 22 17 16 20 24 25 25 27 26 22 19 17 15 15 16 17 18 19
14 13 13 12 12 11 12 12 11 9 8 7 8 9 11 13 15 17 19 21 23 25 26 25 20 16 15 17 23 26 26 29 30 26 22 19 16 15 16 18 20 21
13 13 13 12 12 12 12 13 13 12 12 12 11 11 13 14 15 17 19 20 21 23 24 22 20 19 17 17 21 24 26 30 31 29 26 24 22 20 19 20 22 22
13 13 13 12 11 12 12 12 13 14 14 14 14 14 14 15 15 16 18 20 21 23 24 22 21 21 20 20 22 23 26 30 30 28 24 23 24 24 22 22 23 22
13 13 13 12 12 13 13 14 14 15 15 16 17 17 16 16 16 16 15 16 18 20 21 20 21 22 23 23 23 24 28 27 22 19 19 21 24 24 23 24 23 20
Wind_Direction
148 148 148 147 146 146 143 145 152 154 148 138 127 121 120 117 107 104 106 106 103 103 107 105 100 100 104 104 100 97 96 98 100 101 104 102 101 99 88 85 86 84
149 151 149 146 145 145 146 147 146 144 137 130 124 120 119 116 110 111 114 115 115 113 110 106 104 103 99 99 102 102 101 103 104 106 108 102 98 98 92 88 92 94
151 151 147 146 146 145 145 142 138 135 130 125 123 121 121 121 116 116 119 117 117 115 109 104 105 105 99 99 103 104 102 101 102 104 104 100 98 99 95 91 95 97
151 150 148 148 147 145 143 141 139 133 125 124 127 128 130 128 121 117 117 117 116 113 110 109 110 109 107 109 111 109 105 103 105 107 104 102 102 99 93 90 90 92
151 152 152 152 151 150 147 143 141 136 133 134 133 136 138 131 126 123 120 121 121 117 114 113 114 114 114 117 117 114 112 112 115 116 113 111 109 102 98 94 93 96
152 153 155 158 160 158 150 146 147 146 149 149 140 139 142 137 135 136 132 130 129 126 123 120 119 119 120 121 120 118 118 121 122 121 119 116 113 110 105 102 101 101
154 154 157 160 160 156 152 154 158 157 155 153 151 152 150 148 148 146 142 140 139 136 132 130 128 125 124 124 124 125 124 124 125 123 122 120 119 118 111 107 107 101
156 155 158 159 154 151 156 161 165 167 160 153 160 166 160 159 161 158 157 152 147 143 137 135 132 129 130 129 127 128 127 128 131 128 125 124 122 117 111 110 111 107
157 158 160 158 155 156 162 165 167 171 165 156 161 169 167 171 171 166 167 162 154 149 145 141 138 136 135 133 130 129 129 128 130 130 129 129 127 121 118 117 113 113
160 166 164 159 160 163 165 167 169 169 165 161 170 176 178 179 176 174 173 168 162 157 153 149 145 142 141 141 139 137 135 128 127 132 132 132 135 134 131 128 121 122
171 174 171 167 169 169 168 171 170 169 173 180 186 190 187 179 175 179 180 174 172 168 162 158 154 151 150 150 149 147 146 139 136 141 141 143 146 138 137 140 138 138
177 180 179 178 182 181 181 184 180 179 186 193 197 196 190 182 181 186 187 183 181 177 172 168 165 166 165 161 159 156 154 151 150 151 150 152 150 135 137 144 145 151
171 176 177 181 191 193 196 197 192 193 201 208 208 199 190 189 192 192 191 191 191 189 188 184 180 182 182 178 174 167 162 162 163 163 161 161 158 154 158 161 163 170
162 171 179 189 194 193 202 204 197 201 212 222 222 207 193 194 200 200 198 199 201 198 197 196 193 193 192 189 186 181 177 175 173 172 172 171 167 166 171 170 172 181
156 155 162 183 188 189 207 210 204 208 215 223 230 219 205 205 209 209 206 207 212 209 205 204 201 200 199 196 192 188 185 183 180 179 177 176 179 180 179 180 174 181
155 152 157 173 181 189 216 217 212 217 220 228 235 233 226 221 221 225 224 219 219 219 214 210 208 207 206 202 197 192 189 186 184 185 187 188 191 189 187 198 208 206
150 160 174 185 188 194 216 225 227 230 230 234 242 245 241 237 236 241 244 239 235 233 229 220 212 211 211 206 201 196 191 186 183 182 182 184 187 188 186 188 195 208
163 177 186 191 197 211 221 222 225 228 224 228 241 245 244 246 249 248 247 248 247 246 244 235 220 212 213 212 207 201 194 188 188 186 183 181 183 188 189 184 183 195
107 145 169 174 178 197 215 216 218 221 219 222 234 239 237 236 239 247 251 249 246 246 246 245 231 216 214 215 211 206 201 199 198 196 193 189 187 191 193 192 196 205
45 53 63 87 130 170 207 218 225 234 238 238 240 241 240 235 231 238 250 247 244 245 245 247 248 237 225 220 214 209 208 208 205 200 199 201 204 208 210 206 206 207
30 33 33 27 24 26 256 246 249 253 256 260 257 251 249 249 244 240 240 239 239 243 244 245 248 249 244 236 224 215 214 212 208 206 207 211 217 221 217 213 212 212
16 15 15 13 9 3 347 333 316 285 270 264 259 252 248 249 249 244 242 241 241 244 248 250 250 249 248 243 231 225 225 222 218 215 211 208 209 212 214 215 216 219
3 0 360 359 356 352 351 353 350 337 320 296 272 262 251 244 243 245 247 249 250 251 251 253 257 257 249 237 229 230 232 229 225 223 222 220 218 218 222 221 218 222
351 346 344 342 340 338 339 341 338 332 326 317 301 283 269 260 251 246 247 251 255 256 254 250 248 250 247 236 230 231 231 228 226 228 231 233 232 231 230 221 214 214
336 330 328 327 323 320 319 319 317 314 312 312 309 297 284 274 264 251 246 249 256 259 258 252 246 245 244 239 236 234 230 228 227 227 230 234 233 228 220 210 202 196
323 320 320 319 313 308 306 303 301 300 297 297 299 298 292 284 277 269 258 254 261 263 257 252 251 252 250 248 248 241 230 226 226 227 233 239 235 221 202 192 187 179